Regional Weather Roundup
Issued by NWS

Home | Current Version | Previous Version | Graphics & Text | Print | Product List | Glossary On
Versions: 1 2 3 4 5 6 7 8 9 10 11 12 13 14 15 16 17 18 19 20 21 22 23 24 25 26 27 28 29 30 31 32 33 34 35 36 37 38 39 40 41 42 43 44 45 46 47 48 49 50
000
ASUS45 KBOI 171410
RWRID

IDAHO REGIONAL WEATHER ROUNDUP
NATIONAL WEATHER SERVICE BOISE ID
700 AM MST SUN DEC 17 2017

NOTE: "FAIR" INDICATES FEW OR NO CLOUDS BELOW 12000 FEET
WITH NO SIGNIFICANT WEATHER AND/OR OBSTRUCTIONS TO VISIBILITY

IDZ012-014-171500-
SOUTHWEST IDAHO


CITY           SKY/WX    TMP DP  RH WIND       PRES   REMARKS
BOISE          CLEAR     20  16  84 SE6       30.24F WCI  12
CALDWELL       CLOUDY    20  18  92 CALM      30.27F
MOUNTAIN HOME  CLEAR     20  20 100 SW7       30.25F WCI  11
$$

IDZ016-017-171500-
SOUTHCENTRAL IDAHO


CITY           SKY/WX    TMP DP  RH WIND       PRES   REMARKS
BURLEY         PTCLDY    22  14  71 W7        30.21R WCI  13
JEROME         PTCLDY    20  16  84 S6        30.22R WCI  12
TWIN FALLS     PTCLDY    20  13  74 S12       30.22R WCI   8
$$

IDZ019>023-171500-
SOUTHEAST IDAHO


CITY           SKY/WX    TMP DP  RH WIND       PRES   REMARKS
IDAHO FALLS    CLOUDY    22  22 100 SW3       30.18R FOG
POCATELLO      CLOUDY    24  20  84 SW14      30.21R WCI  12
REXBURG        CLOUDY    19  18  95 W6        30.17R FOG     WCI  11
$$

IDZ006-010-011-018-031-032-171500-
CENTRAL IDAHO MOUNTAINS


CITY           SKY/WX    TMP DP  RH WIND       PRES   REMARKS
MCCALL         CLOUDY    11   7  84 CALM      30.14S
HAILEY         FOG       10   9  92 S3        30.16R VSB 1/2
STANLEY          N/A     -2  -6  83 CALM      30.16S
SALMON         CLOUDY     9   6  88 CALM      30.24F
CHALLIS        MOCLDY     9   4  80 CALM      30.18S
$$

IDZ002-004-006-007-026-171500-
NORTHERN IDAHO


CITY           SKY/WX    TMP DP  RH WIND       PRES   REMARKS
LEWISTON       CLOUDY    28  25  88 SE7       30.22S WCI  21
LOWELL           N/A     28  25  88 CALM      30.31F
COEUR D`ALENE  LGT SNOW  28  27  96 S8        30.16F FOG     WCI  20
MULLAN PASS    LGT SNOW  21  17  84 SW8       30.00S FOG     WCI  11
$$



USA.gov is the U.S. government's official web portal to all federal, state and local government web resources and services.